Other Public Products
Issued by NWS Grand Forks, ND

Home | Current Version | Previous Version | Text Only | Print | Product List | Glossary On
Versions: 1 2 3 4 5 6 7 8 9 10 11 12 13 14 15 16 17 18 19 20 21 22 23 24 25 26 27 28 29 30 31 32 33 34 35 36 37 38 39 40 41 42 43 44 45 46 47 48 49 50
000
FPUS83 KFGF 251510
OPUFGF
PRAIRIE TO PINES WEATHER ROUNDUP
NATIONAL WEATHER SERVICE EASTERN NORTH DAKOTA/GRAND FORKS ND
1000 AM CDT MON SEP 25 2017

 **SATELLITE DATA USED TO AUGMENT SKY COVER AT AUTOMATED STATIONS**
 *****  WEATHER ACROSS EASTERN NORTH DAKOTA  *****

CITY           SKY/WX    TMP DP  RH WIND       PRES   REMARKS
GRAND FORKS    CLOUDY    50  46  86 N13       30.12R
GRAND FORKS AF PTSUNNY   49  45  87 N14       30.12F
GRAND CITY NWS NOT AVBL
BUXTON         NOT AVBL
DEVILS LAKE    CLOUDY    47  42  83 N8        30.16F
FARGO          LGT RAIN  50  49  96 N12       30.10F FOG
WAHPETON ARPT  CLOUDY    50  45  81 N9        30.09S
$$

 *****  WEATHER ACROSS CENTRAL AND WESTERN NORTH DAKOTA  *****

CITY           SKY/WX    TMP DP  RH WIND       PRES   REMARKS
JAMESTOWN      LGT RAIN  48  44  86 N7        30.13R
BISMARCK       CLOUDY    49  46  90 E3        30.16S
MINOT          CLOUDY    49  45  86 E6        30.15F
MINOT AFB      NOT AVBL
GARRISON         N/A     48  45  89 E5        30.15S
WILLISTON      CLOUDY    47  44  90 SW3       30.16F
DICKINSON      CLOUDY    45  42  89 CALM      30.14R
HETTINGER      CLOUDY    43  38  82 CALM      30.17R
$$

 *****  OTHER OBSERVATIONS NORTHEAST NORTH DAKOTA  *****

CITY           SKY/WX    TMP DP  RH WIND       PRES   REMARKS
WALHALLA       FAIR     N/A N/A N/A N12       30.16S
LANGDON        NOT AVBL
CAVALIER       FAIR      48  45  87 N8        30.15F
GRAFTON        NOT AVBL
CANDO          CLOUDY    48  46  93 N9        30.18S
FORT TOTTEN      N/A     47  42  82 N5        29.95S
ROLLA          CLOUDY    46  43  87 N9        30.17F
RUGBY          NOT AVBL
 ***** THE ABOVE OBSERVATIONS ARE NON NWS ARE NOT QUALITY
        CONTROLLED AND MAY MIS-REPORT RAIN FOR SNOW...
$$

 *****  OTHER OBSERVATIONS SOUTHEAST NORTH DAKOTA *****

CITY           SKY/WX    TMP DP  RH WIND       PRES   REMARKS
COOPERSTOWN    CLOUDY    46  46 100 NE8       30.14R FOG
VALLEY CITY    NOT AVBL
OAKES          NOT AVBL
GWINNER        CLOUDY    48  48 100 NE12      30.11S FOG
SHEYENNE NWR     N/A     49  48  95 N8        29.95S
BUFFALO        NOT AVBL
WYNDMERE       NOT AVBL
 ***** THE ABOVE OBSERVATIONS ARE NON NWS ARE NOT QUALITY
       CONTROLLED AND MAY MIS-REPORT RAIN FOR SNOW...
$$

  *****  WEATHER ACROSS NORTHERN MINNESOTA  *****

CITY           SKY/WX    TMP DP  RH WIND       PRES   REMARKS
FLAG ISLAND    CLOUDY    48  46  93 N13       30.08S
WARROAD        PTSUNNY   46  43  87 NW12      30.10S
ROSEAU         PTSUNNY   46  43  87 N13       30.10F
HALLOCK          N/A     48  46  93 N9        30.13F
THF RVR FALLS  CLOUDY    48  46  93 N7        30.12R
HALSTAD        NOT AVBL
FOSSTON        CLOUDY    46  45  93 N8        30.10F FOG
BAUDETTE       CLOUDY    52  49  89 N13       30.08R
WASKISH        CLOUDY    50  48  93 NW6       30.08S
CROOKSTON      CLOUDY    48  46  93 N8        30.13R
$$
  *****  WEATHER ACROSS CENTRAL AND WEST MINNESOTA  *****

CITY           SKY/WX    TMP DP  RH WIND       PRES   REMARKS
BEMIDJI        CLOUDY    48  47  99 NW9       30.08R FOG
PARK RAPIDS    CLOUDY    51  46  83 N13       30.06S
WADENA         CLOUDY    50  48  93 N10       30.05S
DETROIT LAKES  CLOUDY    48  46  93 N8        30.08F
MOORHEAD       CLOUDY    48  46  93 N12       30.10F FOG
FERGUS FALLS   CLOUDY    52  52 100 N8        30.08F
ELBOW LAKE     CLOUDY    50  48  91 N12       30.06F
MORRIS MN      NOT AVBL
STAPLES        DRIZZLE   48  48 100 N7        30.05S
WHEATON        CLOUDY    52  45  76 N15       30.08F
$$
  *****  WEATHER ELSEWHERE ACROSS MINNESOTA  *****

CITY           SKY/WX    TMP DP  RH WIND       PRES   REMARKS
DULUTH         LGT RAIN  52  51  97 NW10      30.01R
INTRNTL FALLS  CLOUDY    52  50  93 N9        30.06R
ELY            PTSUNNY   52  50  93 NW6       30.03R
CLOQUET        LGT RAIN  54  50  87 W6        30.02R
BRAINERD       LGT RAIN  51  50  96 NW6       30.04R
HIBBING        CLOUDY    50  48  93 NW9       30.03F
ALEXANDRIA     CLOUDY    51  50  96 N12       30.05F
SAINT CLOUD    CLOUDY    53  52  96 N8        30.03F
MINNEAPOLIS    CLOUDY    60  58  92 NW10      30.00S
$$

  *****  WEATHER ACROSS SOUTH DAKOTA  *****

CITY           SKY/WX    TMP DP  RH WIND       PRES   REMARKS
SIOUX FALLS    CLOUDY    54  52  93 NE14      30.04R
BROOKINGS      CLOUDY    50  47  89 NE10      30.06R
WATERTOWN      CLOUDY    48  47  96 N17       30.05R
HURON          CLOUDY    50  48  93 N14       30.09R
SISSETON         N/A     53  48  83 N16       30.07F
ABERDEEN       CLOUDY    51  47  86 N12       30.10F
MITCHELL       CLOUDY    51  50  96 N9        30.08S
PIERRE         CLOUDY    50  44  80 N9        30.12S
MOBRIDGE       CLOUDY    51  46  83 NE8       30.12R
RAPID CITY     CLOUDY    45  41  87 SE7       30.15R
$$

  *****  SOME WEATHER IN NEARBY STATES *****

CITY           SKY/WX    TMP DP  RH WIND       PRES   REMARKS
GLASGOW MT     CLOUDY    43  41  93 E10       30.13R
GREAT FALLS MT FAIR      47  32  56 S12       30.05R
CHEYENNE WY    PTSUNNY   40  37  89 N5        30.12R
SCOTTSBLUFF NE CLOUDY    44  40  85 CALM      30.14S
OMAHA NE       PTSUNNY   65  60  84 E3        29.95S
DES MOINES IA  FAIR      74  65  73 CALM      29.94F
DAVENPORT IA   FAIR      78  65  63 VRB3      30.00F
CHICAGO IL     FAIR      81  61  50 VRB5      30.01F
EAU CLAIRE WI  FAIR      72  65  78 E6        29.96S
LA CROSSE WI   FAIR      77  64  64 SW7       29.95S
$$

  *****  SOME NATIONAL WEATHER *****

CITY           SKY/WX    TMP DP  RH WIND       PRES   REMARKS
LA GUARDIA NY  FAIR      79  66  64 NE8       30.07S
RALEIGH NC     PTSUNNY   75  65  70 NE8       30.02R
ATLANTA GA     FAIR      79  63  57 NE7       30.05S
NEW ORLEANS LA FAIR      80  72  76 NE13      29.93R
OKLAHOMA CITY  PTSUNNY   74  66  76 S15       29.92S
ALBUQUERQUE NM FAIR      56  23  27 N8        30.01S
SALT LAKE CITY FAIR      45  41  86 SE8       30.14R
LOS ANGELES CA FAIR      69  37  30 NE3       29.86R
BOISE ID       FAIR      46  33  60 S7        30.13R
SEATTLE WA     CLOUDY    57  53  86 S5        30.10S
$$

*** WEATHER ACROSS MANITOBA...SASKATCHEWAN AND ONTARIO ***
                ***ONTARIO***

CITY           SKY/WX    TMP DP  RH WIND       PRES   REMARKS
GERALDTON      DRIZZLE   61  57  88 NW12      29.93R
THUNDER BAY    PTSUNNY   63  55  77 NW9       29.95R
SIOUX LOOKOUT  DRIZZLE   50  48  93 N5        30.05R
TORONTO        PTSUNNY   84  64  51 S7        30.10S
BIG TROUT LK   CLOUDY    45  45 100 N10       30.06R FOG
PICKLE LAKE    PTSUNNY   46  45  93 N6        30.02R
DRYDEN         LGT RAIN  48  48 100 N6        30.05R FOG
KENORA         DRIZZLE   48  46  93 N8        30.09R
$$
                *** MANITOBA***

CITY           SKY/WX    TMP DP  RH WIND       PRES   REMARKS
BRANDON        PTSUNNY   48  39  71 NE2       30.20R
DAUPHIN        CLOUDY    48  45  87 W5        30.19R
ISLAND LAKE    CLOUDY    43  41  93 N7        30.17R FOG
PILOT MOUND      N/A     46  41  81 N10         N/A
THE PAS        MOSUNNY   45  39  81 SE12      30.16S
THOMPSON       PTSUNNY   41  32  70 SE3       30.20S
WINNIPEG       CLOUDY    48  45  87 N12       30.17R
LYNN LAKE      CLOUDY    39  39 100 SE8       30.12S FOG
CHURCHILL      MOSUNNY   43  32  65 W9        30.18S
GILLAM         PTSUNNY   39  30  70 N9        30.21R
$$
                ***SASKATCHEWAN***

CITY           SKY/WX    TMP DP  RH WIND       PRES   REMARKS
ESTEVAN        PTSUNNY   45  45 100 SE3       30.17S
KINDERSLEY     PTSUNNY   45  36  70 S6        30.01S
LLOYDMINSTER   CLOUDY    48  36  61 S13       29.94S
PRINCE ALBERT  PTSUNNY   45  37  76 SW5       30.08R
REGINA         CLOUDY    46  39  76 SE6       30.14S
YORKTON        CLOUDY    48  41  76 S7        30.16R


USA.gov is the U.S. government's official web portal to all federal, state and local government web resources and services.